Location: Girdwood
(60.9430°N, 149.1660°W)
Time: 08:48:24
(UTC-08:00)

Iridium 86 - Visible Passes

Search period start: 29 July 2014 00:00
Search period end: 08 August 2014 00:00
Orbit: 776 x 779 km, 86.4° (Epoch: 29 July)

Date Brightness Start Highest point End Pass type
(mag) Time Alt. Az. Time Alt. Az. Time Alt. Az.
29 Jul 8.3 23:50:47 10° NW 23:53:29 14° WNW 23:56:11 10° W visible
01 Aug 8.6 23:51:43 10° NW 23:53:18 11° WNW 23:54:52 10° W visible
05 Aug 8.6 23:17:40 10° NW 23:20:04 13° WNW 23:22:27 10° W visible
